{"data":{"norad_id":52610,"epoch":"2026-05-25T03:03:50.249088Z","epoch_age_seconds":74688,"freshness":"FRESH","line1":"1 52610U 22052N   26145.12766492 -.00006505  00000+0 -39068-3 0  9996","line2":"2 52610  53.2125 300.9742 0001564  92.1882 267.9289 15.08864613222321","mean_motion":15.08864613,"eccentricity":0.0001564,"inclination_deg":53.2125,"raan_deg":300.9742,"arg_perigee_deg":92.1882,"mean_anomaly_deg":267.9289,"bstar":-0.00039068,"rev_number":22232,"period_min":95.435997875046,"perigee_km":538.58621316566,"apogee_km":540.75010261905,"semimajor_km":6917.8051578924,"source":"CELESTRAK","updated_at":"2026-05-25T13:38:17.199334Z"}}